Location: Casilda
(33.0440°S, 61.1680°W)
Time: 09:00:57
(UTC-03:00)

ISS - Pass Details

Date: 15 October 2021
Orbit: 417 x 423 km, 51.6° (Epoch: 18 October)

Event Time Altitude Azimuth Distance (km) Brightness Sun altitude
Exits shadow 05:29:15 19° 282° (WNW) 1,072 -2.3 -11.9°
Maximum altitude 05:30:16 22° 308° (NW) 979 -2.5 -11.7°
Drops below altitude 10° 05:32:58 10° 2° (N) 1,509 -1.1 -11.1°
Sets 05:35:21 0° 17° (NNE) 2,364 0.1 -10.6°
